Weather History for Ironwood, MI

Change the Weather History Date:

Sunday, November 10, 2013

  Actual Average Record
Temperature  
Mean Temperature 36 °F -  
Max Temperature 39 °F 39 °F 64 °F (2010)
Min Temperature 33 °F 26 °F 21 °F (1996)
Degree Days  
Heating Degree Days 29    
Moisture  
Dew Point 26 °F    
Average Humidity 68    
Maximum Humidity 87    
Minimum Humidity 52    
Precipitation  
Precipitation 0.03 in - - ()
Sea Level Pressure  
Sea Level Pressure 30.08 in    
Wind  
Wind Speed 13 mph (West)    
Max Wind Speed 17 mph    
Max Gust Speed 26 mph    
Visibility 9 miles    
Events      
Averages and records for this station are not official NWS values.
T = Trace of Precipitation, MM = Missing Value Source: NWS Daily Summary

Daily Weather History Graph

Daily Weather History Graph

Search for Another Location

Airport:

Trip Planner

Search our weather history database for the weather conditions in past years. The results will help you decide how hot, cold, wet, or windy it might be!

Date:

Astronomy

Nov. 10, 2013 Rise Set
Actual Time 6:55 AM CST 4:32 PM CST
Civil Twilight 6:23 AM CST 5:05 PM CST
Nautical Twilight 5:47 AM CST 5:41 PM CST
Astronomical Twilight 5:11 AM CST 6:16 PM CST
Moon 1:01 PM CST (11/10) No Moon Set
Length of Visible Light 10h 41m
Length of Day
9h 37m
First Quarter, 56% of the Moon is Illuminated
Nov 10
First Quarter
Nov 17
Full
Nov 25
Last Quarter
Dec 2
New
Dec 9
First Quarter

Hourly Weather History & Observations

Time (CST) Temp. Windchill Dew Point Humidity Pressure Visibility Wind Dir Wind Speed Gust Speed Precip Events Conditions
12:15 AM 35.6 °F 26.6 °F 30.2 °F 81% 29.95 in 10.0 mi WNW 13.8 mph 25.3 mph 0.01 in   Overcast
12:35 AM 35.6 °F 26.6 °F 30.2 °F 81% 29.95 in 10.0 mi WNW 13.8 mph 21.9 mph 0.01 in   Overcast
12:55 AM 35.6 °F 25.5 °F 30.2 °F 81% 29.97 in 7.0 mi WNW 17.3 mph 25.3 mph 0.01 in   Overcast
1:15 AM 35.6 °F 27.1 °F 30.2 °F 81% 29.98 in 7.0 mi WNW 12.7 mph 24.2 mph N/A   Overcast
1:35 AM 35.6 °F 26.2 °F 30.2 °F 81% 29.99 in 8.0 mi WNW 15.0 mph 24.2 mph N/A   Overcast
1:55 AM 35.6 °F 26.6 °F 30.2 °F 81% 30.01 in 10.0 mi WNW 13.8 mph 26.5 mph N/A   Overcast
2:15 AM 35.6 °F 25.9 °F 28.4 °F 75% 30.02 in 10.0 mi NW 16.1 mph 24.2 mph N/A   Mostly Cloudy
2:35 AM 33.8 °F 25.3 °F 28.4 °F 81% 30.03 in 3.0 mi NW 11.5 mph 19.6 mph N/A   Overcast
2:55 AM 35.6 °F 26.6 °F 28.4 °F 75% 30.04 in 10.0 mi NW 13.8 mph 19.6 mph N/A   Mostly Cloudy
3:15 AM 35.6 °F 25.5 °F 28.4 °F 75% 30.05 in 10.0 mi NW 17.3 mph 23.0 mph 0.01 in   Overcast
3:35 AM 35.6 °F 28.6 °F 28.4 °F 75% 30.06 in 10.0 mi WNW 9.2 mph - 0.01 in   Overcast
3:55 AM 35.6 °F 26.6 °F 28.4 °F 75% 30.07 in 10.0 mi NW 13.8 mph 23.0 mph 0.01 in   Overcast
4:15 AM 35.6 °F 27.1 °F 28.4 °F 75% 30.08 in 10.0 mi NW 12.7 mph 19.6 mph N/A   Overcast
4:35 AM 35.6 °F 27.1 °F 26.6 °F 70% 30.09 in 10.0 mi NW 12.7 mph 20.7 mph N/A   Overcast
4:55 AM 35.6 °F 25.5 °F 26.6 °F 70% 30.10 in 10.0 mi NW 17.3 mph 23.0 mph N/A   Overcast
5:15 AM 35.6 °F 27.5 °F 26.6 °F 70% 30.11 in 10.0 mi NW 11.5 mph - N/A   Overcast
5:35 AM 35.6 °F 26.6 °F 26.6 °F 70% 30.13 in 10.0 mi NW 13.8 mph - N/A   Overcast
5:55 AM 35.6 °F 27.5 °F 26.6 °F 70% 30.13 in 10.0 mi NW 11.5 mph 17.3 mph N/A   Overcast
6:15 AM 35.6 °F 27.5 °F 26.6 °F 70% 30.14 in 10.0 mi WNW 11.5 mph - N/A   Overcast
6:35 AM 35.6 °F 27.1 °F 26.6 °F 70% 30.15 in 10.0 mi WNW 12.7 mph 18.4 mph N/A   Overcast
6:55 AM 35.6 °F 27.5 °F 24.8 °F 65% 30.15 in 10.0 mi WNW 11.5 mph - N/A   Overcast
7:15 AM 35.6 °F 28.0 °F 24.8 °F 65% 30.17 in 10.0 mi WNW 10.4 mph - N/A   Overcast
7:35 AM 35.6 °F 28.6 °F 24.8 °F 65% 30.18 in 10.0 mi West 9.2 mph - N/A   Overcast
7:55 AM 33.8 °F 26.4 °F 24.8 °F 70% 30.18 in 10.0 mi WNW 9.2 mph - N/A   Overcast
8:15 AM 33.8 °F 26.4 °F 24.8 °F 70% 30.17 in 10.0 mi WNW 9.2 mph - N/A   Overcast
8:35 AM 33.8 °F 27.7 °F 24.8 °F 70% 30.18 in 10.0 mi WNW 6.9 mph - N/A   Overcast
8:55 AM 33.8 °F 28.6 °F 24.8 °F 70% 30.17 in 10.0 mi NW 5.8 mph - N/A   Overcast
9:15 AM 35.6 °F 28.6 °F 24.8 °F 65% 30.17 in 10.0 mi West 9.2 mph - N/A   Overcast
9:35 AM 35.6 °F 28.0 °F 26.6 °F 70% 30.17 in 10.0 mi West 10.4 mph - N/A   Overcast
9:55 AM 35.6 °F 27.1 °F 24.8 °F 65% 30.18 in 10.0 mi West 12.7 mph - N/A   Overcast
10:15 AM 35.6 °F 26.6 °F 26.6 °F 70% 30.18 in 10.0 mi West 13.8 mph - N/A   Overcast
10:35 AM 35.6 °F 26.6 °F 24.8 °F 65% 30.19 in 10.0 mi West 13.8 mph - N/A   Overcast
10:55 AM 35.6 °F 27.5 °F 24.8 °F 65% 30.19 in 10.0 mi West 11.5 mph - N/A   Overcast
11:15 AM 35.6 °F 26.2 °F 24.8 °F 65% 30.18 in 10.0 mi West 15.0 mph - N/A   Overcast
11:35 AM 35.6 °F 27.1 °F 26.6 °F 70% 30.17 in 10.0 mi WSW 12.7 mph 16.1 mph N/A   Overcast
11:55 AM 35.6 °F 26.2 °F 24.8 °F 65% 30.15 in 10.0 mi SW 15.0 mph - N/A   Overcast
12:15 PM 35.6 °F 28.0 °F 24.8 °F 65% 30.14 in 10.0 mi SW 10.4 mph - N/A   Scattered Clouds
12:35 PM 37.4 °F 28.9 °F 24.8 °F 60% 30.13 in 10.0 mi SW 13.8 mph 17.3 mph N/A   Clear
12:55 PM 37.4 °F 28.5 °F 24.8 °F 60% 30.12 in 10.0 mi SW 15.0 mph - N/A   Clear
1:15 PM 37.4 °F 30.8 °F 24.8 °F 60% 30.12 in 10.0 mi SW 9.2 mph - N/A   Clear
1:35 PM 39.2 °F 31.6 °F 24.8 °F 56% 30.11 in 10.0 mi SSW 12.7 mph - N/A   Clear
1:55 PM 39.2 °F 31.6 °F 24.8 °F 56% 30.10 in 10.0 mi SSW 12.7 mph 18.4 mph N/A   Clear
2:15 PM 39.2 °F 31.2 °F 24.8 °F 56% 30.09 in 10.0 mi SW 13.8 mph 18.4 mph N/A   Clear
2:35 PM 39.2 °F 31.2 °F 24.8 °F 56% 30.10 in 10.0 mi WSW 13.8 mph - N/A   Clear
2:55 PM 39.2 °F 30.5 °F 24.8 °F 56% 30.09 in 10.0 mi SW 16.1 mph 20.7 mph N/A   Clear
3:15 PM 39.2 °F 32.0 °F 24.8 °F 56% 30.08 in 10.0 mi WSW 11.5 mph - N/A   Clear
3:35 PM 39.2 °F 31.6 °F 24.8 °F 56% 30.08 in 10.0 mi SW 12.7 mph 24.2 mph N/A   Clear
3:55 PM 39.2 °F 32.0 °F 23.0 °F 52% 30.06 in 10.0 mi SW 11.5 mph - 0.01 in   Clear
4:15 PM 39.2 °F 31.6 °F 23.0 °F 52% 30.06 in 10.0 mi SW 12.7 mph - N/A   Clear
4:35 PM 39.2 °F 32.5 °F 23.0 °F 52% 30.05 in 10.0 mi SW 10.4 mph - N/A   Mostly Cloudy
4:55 PM 37.4 °F 31.4 °F 23.0 °F 56% 30.05 in 10.0 mi SW 8.1 mph 16.1 mph N/A   Partly Cloudy
5:15 PM 37.4 °F 30.3 °F 23.0 °F 56% 30.04 in 10.0 mi SW 10.4 mph - N/A   Partly Cloudy
5:35 PM 37.4 °F 29.3 °F 23.0 °F 56% 30.04 in 10.0 mi SW 12.7 mph 17.3 mph N/A   Mostly Cloudy
5:55 PM 37.4 °F 29.3 °F 23.0 °F 56% 30.03 in 10.0 mi SW 12.7 mph 18.4 mph N/A   Scattered Clouds
6:15 PM 37.4 °F 28.9 °F 24.8 °F 60% 30.03 in 10.0 mi WSW 13.8 mph 21.9 mph N/A   Clear
6:35 PM 37.4 °F 29.3 °F 24.8 °F 60% 30.03 in 10.0 mi WSW 12.7 mph 19.6 mph N/A   Partly Cloudy
6:55 PM 37.4 °F 29.8 °F 23.0 °F 56% 30.03 in 10.0 mi WSW 11.5 mph - N/A   Partly Cloudy
7:15 PM 37.4 °F 28.5 °F 24.8 °F 60% 30.02 in 10.0 mi WSW 15.0 mph - N/A   Partly Cloudy
7:35 PM 37.4 °F 29.3 °F 24.8 °F 60% 30.02 in 10.0 mi SW 12.7 mph 18.4 mph N/A   Mostly Cloudy
7:55 PM 37.4 °F 29.8 °F 24.8 °F 60% 30.01 in 10.0 mi WSW 11.5 mph - N/A   Overcast
8:15 PM 37.4 °F 29.8 °F 24.8 °F 60% 30.01 in 10.0 mi WSW 11.5 mph 17.3 mph N/A   Overcast
8:35 PM 37.4 °F 29.3 °F 24.8 °F 60% 30.01 in 10.0 mi WSW 12.7 mph 16.1 mph N/A   Overcast
8:55 PM - - - N/A% 30.00 in 10.0 mi WSW 17.3 mph - N/A   Overcast
9:15 PM 35.6 °F 26.2 °F 26.6 °F 70% 30.00 in 8.0 mi WSW 15.0 mph 24.2 mph N/A   Mostly Cloudy
9:35 PM 33.8 °F 25.8 °F 28.4 °F 81% 30.00 in 3.0 mi WSW 10.4 mph - N/A   Overcast
9:55 PM 33.8 °F 25.8 °F 28.4 °F 81% 30.01 in 2.5 mi West 10.4 mph - N/A   Overcast
10:15 PM 33.8 °F 26.4 °F 28.4 °F 81% 30.01 in 2.5 mi WSW 9.2 mph - N/A   Overcast
10:35 PM 33.8 °F 25.8 °F 30.2 °F 87% 30.00 in 2.5 mi WSW 10.4 mph - N/A   Overcast
10:55 PM 33.8 °F 25.3 °F 28.4 °F 81% 30.00 in 3.0 mi WSW 11.5 mph - N/A   Overcast
11:15 PM 33.8 °F 24.3 °F 30.2 °F 87% 30.00 in 3.0 mi West 13.8 mph 19.6 mph N/A   Overcast
11:35 PM 33.8 °F 24.8 °F 28.4 °F 81% 29.99 in 4.0 mi WSW 12.7 mph - N/A   Overcast
11:55 PM 33.8 °F 23.5 °F 28.4 °F 81% 30.00 in 3.0 mi West 16.1 mph 20.7 mph N/A   Overcast